AFR264Y EGGD-LFPO

Flight info

Callsign AFR264Y
Flight time 0h 59m
Altitude 27000
Route YORQI L607 ALHAD UN859 DVL/N0404F190 A34 LGL H20 BOBSA
Aircraft A320/M-SDE3FGHIRWY/LB1

Departure

Time 2026-04-30 06:43
Airport Bristol Airport (EGGD)

Arrival

Time 2026-04-30 07:43
Airport Paris-Orly Airport (LFPO)
Time Latitude Longitude Altitude Speed Heading
2026-04-30 06:18 51.38547 -2.71597 612 ft 0 kts 356°
2026-04-30 06:36 51.38545 -2.71597 612 ft 2 kts 356°
2026-04-30 06:36 51.38519 -2.71593 617 ft 4 kts 347°
2026-04-30 06:36 51.38498 -2.71580 622 ft 4 kts 284°
2026-04-30 06:36 51.38493 -2.71577 627 ft 0 kts 198°
2026-04-30 06:39 51.38453 -2.71609 608 ft 14 kts 225°
2026-04-30 06:39 51.38432 -2.71753 606 ft 13 kts 268°
2026-04-30 06:39 51.38431 -2.71893 606 ft 12 kts 270°
2026-04-30 06:40 51.38432 -2.72032 606 ft 14 kts 269°
2026-04-30 06:40 51.38428 -2.72197 616 ft 17 kts 266°
2026-04-30 06:40 51.38415 -2.72464 615 ft 28 kts 265°
2026-04-30 06:40 51.38402 -2.72765 615 ft 27 kts 266°
2026-04-30 06:41 51.38391 -2.73058 615 ft 25 kts 266°
2026-04-30 06:41 51.38372 -2.73276 621 ft 17 kts 237°
2026-04-30 06:41 51.38280 -2.73340 620 ft 10 kts 180°
2026-04-30 06:41 51.38243 -2.73326 624 ft 4 kts 155°
2026-04-30 06:42 51.38216 -2.73252 630 ft 0 kts 90°
2026-04-30 06:42 51.38225 -2.73022 623 ft 56 kts 86°
2026-04-30 06:43 51.38262 -2.72052 618 ft 117 kts 86°
2026-04-30 06:43 51.38332 -2.70481 655 ft 159 kts 86°
2026-04-30 06:43 51.38401 -2.68729 1281 ft 156 kts 90°
2026-04-30 06:43 51.38462 -2.66999 2035 ft 156 kts 94°
2026-04-30 06:44 51.38507 -2.65219 2722 ft 167 kts 92°
2026-04-30 06:44 51.38559 -2.63253 3088 ft 189 kts 92°
2026-04-30 06:44 51.38607 -2.60996 3413 ft 217 kts 92°
2026-04-30 06:44 51.38653 -2.58451 3873 ft 239 kts 93°
2026-04-30 06:45 51.38889 -2.55792 4740 ft 249 kts 76°
2026-04-30 06:45 51.39855 -2.53376 5449 ft 272 kts 48°
2026-04-30 06:45 51.41462 -2.51686 6159 ft 282 kts 32°
2026-04-30 06:45 51.43241 -2.50384 6137 ft 283 kts 28°
2026-04-30 06:46 51.45039 -2.49141 6029 ft 280 kts 30°
2026-04-30 06:46 51.46786 -2.47772 6017 ft 278 kts 33°
2026-04-30 06:46 51.48483 -2.46280 6019 ft 277 kts 36°
2026-04-30 06:46 51.50117 -2.44662 6015 ft 273 kts 45°
2026-04-30 06:47 51.51314 -2.42408 6025 ft 262 kts 68°
2026-04-30 06:47 51.51848 -2.39667 6279 ft 260 kts 89°
2026-04-30 06:47 51.51766 -2.36808 7172 ft 257 kts 99°
2026-04-30 06:47 51.51571 -2.33940 8034 ft 259 kts 99°
2026-04-30 06:48 51.51377 -2.31036 8855 ft 263 kts 99°
2026-04-30 06:48 51.51181 -2.28149 9669 ft 267 kts 99°
2026-04-30 06:48 51.50974 -2.25156 10454 ft 271 kts 99°
2026-04-30 06:48 51.50753 -2.22029 10761 ft 293 kts 99°
2026-04-30 06:49 51.50515 -2.18654 10973 ft 316 kts 99°
2026-04-30 06:49 51.50263 -2.15011 11126 ft 339 kts 99°
2026-04-30 06:49 51.49997 -2.11157 11378 ft 356 kts 98°
2026-04-30 06:49 51.49721 -2.07171 11945 ft 363 kts 98°
2026-04-30 06:50 51.49439 -2.03121 12573 ft 367 kts 98°
2026-04-30 06:50 51.49152 -1.99038 13228 ft 371 kts 98°
2026-04-30 06:50 51.48858 -1.94901 13865 ft 375 kts 98°
2026-04-30 06:50 51.48559 -1.90712 14433 ft 379 kts 98°
2026-04-30 06:51 51.48259 -1.86496 15023 ft 382 kts 99°
2026-04-30 06:51 51.47955 -1.82253 15600 ft 384 kts 99°
2026-04-30 06:51 51.47645 -1.77983 16204 ft 387 kts 99°
2026-04-30 06:51 51.47329 -1.73678 16793 ft 389 kts 99°
2026-04-30 06:52 51.47013 -1.69350 17356 ft 392 kts 99°
2026-04-30 06:52 51.46547 -1.65048 17897 ft 393 kts 104°
2026-04-30 06:52 51.45951 -1.60764 18438 ft 395 kts 107°
2026-04-30 06:52 51.44893 -1.56796 18891 ft 394 kts 124°
2026-04-30 06:53 51.43199 -1.53335 19330 ft 395 kts 130°
2026-04-30 06:53 51.41413 -1.49977 19784 ft 397 kts 130°
2026-04-30 06:53 51.39605 -1.46600 20222 ft 399 kts 131°
2026-04-30 06:53 51.37789 -1.43219 20655 ft 401 kts 131°
2026-04-30 06:54 51.35963 -1.39828 21059 ft 403 kts 131°
2026-04-30 06:54 51.33976 -1.36646 21455 ft 405 kts 140°
2026-04-30 06:54 51.31774 -1.33807 21850 ft 407 kts 140°
2026-04-30 06:54 51.29554 -1.30970 22208 ft 410 kts 140°
2026-04-30 06:55 51.27314 -1.28123 22605 ft 411 kts 140°
2026-04-30 06:55 51.25068 -1.25278 22973 ft 413 kts 140°
2026-04-30 06:55 51.22810 -1.22420 23322 ft 415 kts 140°
2026-04-30 06:55 51.20546 -1.19555 23683 ft 417 kts 140°
2026-04-30 06:56 51.18265 -1.16673 23988 ft 419 kts 140°
2026-04-30 06:56 51.15977 -1.13788 24267 ft 420 kts 140°
2026-04-30 06:56 51.13679 -1.10892 24535 ft 422 kts 140°
2026-04-30 06:56 51.11373 -1.07985 24796 ft 424 kts 140°
2026-04-30 06:57 51.09060 -1.05073 25042 ft 425 kts 140°
2026-04-30 06:57 51.06733 -1.02145 25297 ft 426 kts 140°
2026-04-30 06:57 51.04400 -0.99213 25533 ft 428 kts 140°
2026-04-30 06:57 51.02059 -0.96278 25757 ft 430 kts 141°
2026-04-30 06:58 50.99796 -0.93453 25975 ft 431 kts 141°
2026-04-30 06:58 50.97434 -0.90507 26223 ft 432 kts 141°
2026-04-30 06:58 50.95104 -0.87600 26530 ft 431 kts 141°
2026-04-30 06:58 50.92744 -0.84663 26856 ft 430 kts 141°
2026-04-30 06:59 50.90394 -0.81742 27147 ft 429 kts 141°
2026-04-30 06:59 50.88039 -0.78817 27210 ft 431 kts 141°
2026-04-30 06:59 50.85665 -0.75885 27215 ft 433 kts 142°
2026-04-30 06:59 50.83156 -0.73240 27213 ft 433 kts 145°
2026-04-30 07:00 50.80623 -0.70652 27215 ft 434 kts 146°
2026-04-30 07:00 50.78085 -0.68069 27213 ft 434 kts 146°
2026-04-30 07:00 50.75574 -0.65520 27210 ft 434 kts 146°
2026-04-30 07:00 50.73031 -0.62943 27215 ft 434 kts 146°
2026-04-30 07:01 50.70491 -0.60372 27214 ft 434 kts 146°
2026-04-30 07:01 50.67949 -0.57804 27209 ft 434 kts 146°
2026-04-30 07:01 50.65407 -0.55242 27216 ft 433 kts 146°
2026-04-30 07:01 50.62863 -0.52674 27209 ft 433 kts 146°
2026-04-30 07:02 50.60319 -0.50105 27208 ft 433 kts 146°
2026-04-30 07:02 50.57778 -0.47540 27205 ft 433 kts 146°
2026-04-30 07:02 50.55243 -0.44981 27199 ft 433 kts 146°
2026-04-30 07:02 50.52696 -0.42416 27193 ft 434 kts 146°
2026-04-30 07:03 50.50186 -0.39896 27188 ft 434 kts 146°
2026-04-30 07:03 50.47641 -0.37345 27181 ft 434 kts 146°
2026-04-30 07:03 50.45092 -0.34796 27177 ft 434 kts 146°
2026-04-30 07:03 50.42540 -0.32248 27174 ft 434 kts 146°
2026-04-30 07:04 50.39994 -0.29712 27173 ft 435 kts 146°
2026-04-30 07:04 50.37437 -0.27167 27173 ft 435 kts 146°
2026-04-30 07:04 50.34880 -0.24623 27168 ft 435 kts 146°
2026-04-30 07:04 50.32321 -0.22076 27166 ft 435 kts 146°
2026-04-30 07:05 50.27211 -0.16996 27163 ft 435 kts 146°
2026-04-30 07:05 50.24653 -0.14462 27162 ft 435 kts 146°
2026-04-30 07:05 50.22092 -0.11930 27159 ft 436 kts 146°
2026-04-30 07:06 50.19531 -0.09401 27161 ft 436 kts 146°
2026-04-30 07:06 50.16964 -0.06865 27159 ft 436 kts 146°
2026-04-30 07:06 50.14396 -0.04336 27155 ft 436 kts 146°
2026-04-30 07:06 50.11852 -0.01866 27155 ft 437 kts 148°
2026-04-30 07:07 50.09099 0.00169 27153 ft 439 kts 157°
2026-04-30 07:07 50.06161 0.01528 27157 ft 441 kts 163°
2026-04-30 07:07 50.03186 0.02682 27157 ft 442 kts 163°
2026-04-30 07:07 50.00204 0.03843 27156 ft 442 kts 163°
2026-04-30 07:08 49.97214 0.05015 27149 ft 442 kts 163°
2026-04-30 07:08 49.94231 0.06196 27147 ft 443 kts 163°
2026-04-30 07:08 49.91236 0.07381 27144 ft 443 kts 163°
2026-04-30 07:08 49.88248 0.08558 27141 ft 443 kts 163°
2026-04-30 07:09 49.85250 0.09733 27136 ft 444 kts 163°
2026-04-30 07:09 49.82255 0.10901 27129 ft 444 kts 163°
2026-04-30 07:09 49.79260 0.12070 27131 ft 444 kts 163°
2026-04-30 07:09 49.76298 0.13228 27124 ft 445 kts 163°
2026-04-30 07:10 49.73295 0.14400 27124 ft 445 kts 163°
2026-04-30 07:10 49.70284 0.15571 27122 ft 445 kts 163°
2026-04-30 07:10 49.67282 0.16741 27120 ft 445 kts 163°
2026-04-30 07:10 49.64275 0.17933 27120 ft 446 kts 163°
2026-04-30 07:11 49.61274 0.19144 27121 ft 446 kts 163°
2026-04-30 07:11 49.58271 0.20364 27122 ft 446 kts 163°
2026-04-30 07:11 49.55266 0.21588 27123 ft 446 kts 163°
2026-04-30 07:11 49.52268 0.22803 27125 ft 447 kts 163°
2026-04-30 07:12 49.49258 0.24018 27125 ft 447 kts 163°
2026-04-30 07:12 49.46244 0.25229 27122 ft 447 kts 163°
2026-04-30 07:12 49.43228 0.26435 27122 ft 447 kts 163°
2026-04-30 07:12 49.40216 0.27632 27119 ft 447 kts 163°
2026-04-30 07:13 49.37201 0.28831 27116 ft 448 kts 163°
2026-04-30 07:13 49.34185 0.30028 27118 ft 448 kts 163°
2026-04-30 07:13 49.31160 0.31232 27118 ft 448 kts 163°
2026-04-30 07:13 49.28187 0.32445 27116 ft 448 kts 162°
2026-04-30 07:14 49.25182 0.33725 27116 ft 448 kts 162°
2026-04-30 07:14 49.22178 0.35038 27114 ft 449 kts 162°
2026-04-30 07:14 49.19169 0.36364 27111 ft 449 kts 162°
2026-04-30 07:14 49.16166 0.37679 27111 ft 449 kts 162°
2026-04-30 07:15 49.13153 0.38985 27110 ft 450 kts 162°
2026-04-30 07:15 49.10136 0.40278 27113 ft 450 kts 162°
2026-04-30 07:15 49.07115 0.41551 27111 ft 450 kts 162°
2026-04-30 07:15 49.04091 0.42803 27110 ft 451 kts 163°
2026-04-30 07:16 49.01061 0.44044 27110 ft 451 kts 163°
2026-04-30 07:16 48.98061 0.45269 27111 ft 451 kts 163°
2026-04-30 07:16 48.95018 0.46509 27107 ft 452 kts 163°
2026-04-30 07:16 48.91982 0.47745 27109 ft 452 kts 163°
2026-04-30 07:17 48.88939 0.48987 26888 ft 453 kts 163°
2026-04-30 07:17 48.85879 0.50239 26623 ft 454 kts 163°
2026-04-30 07:17 48.79783 0.52729 25606 ft 452 kts 162°
2026-04-30 07:18 48.76743 0.53963 24459 ft 452 kts 162°
2026-04-30 07:18 48.73696 0.55194 23275 ft 452 kts 162°
2026-04-30 07:18 48.70657 0.56416 22114 ft 451 kts 162°
2026-04-30 07:18 48.67654 0.57614 21274 ft 443 kts 162°
2026-04-30 07:19 48.64721 0.58784 20432 ft 438 kts 162°
2026-04-30 07:19 48.61790 0.59956 19607 ft 433 kts 162°
2026-04-30 07:19 48.58889 0.61117 18797 ft 429 kts 162°
2026-04-30 07:19 48.56019 0.62264 18036 ft 424 kts 162°
2026-04-30 07:20 48.53179 0.63393 17169 ft 421 kts 162°
2026-04-30 07:20 48.51308 0.64135 16681 ft 417 kts 162°
2026-04-30 07:20 48.48520 0.65244 15959 ft 413 kts 163°
2026-04-30 07:20 48.45752 0.66345 15249 ft 409 kts 163°
2026-04-30 07:21 48.43014 0.67438 14562 ft 405 kts 163°
2026-04-30 07:21 48.40302 0.68518 13952 ft 401 kts 163°
2026-04-30 07:21 48.37659 0.69560 13793 ft 384 kts 163°
2026-04-30 07:21 48.35130 0.70552 13652 ft 368 kts 163°
2026-04-30 07:22 48.30375 0.72428 13388 ft 339 kts 163°
2026-04-30 07:22 48.28163 0.73446 13186 ft 327 kts 155°
2026-04-30 07:22 48.26227 0.75157 13077 ft 321 kts 140°
2026-04-30 07:23 48.24652 0.77528 13105 ft 321 kts 127°
2026-04-30 07:23 48.23519 0.80409 13102 ft 321 kts 115°
2026-04-30 07:23 48.22606 0.83478 13104 ft 321 kts 115°
2026-04-30 07:23 48.21696 0.86537 13104 ft 321 kts 115°
2026-04-30 07:24 48.20785 0.89590 13106 ft 321 kts 115°
2026-04-30 07:24 48.19870 0.92642 13106 ft 321 kts 115°
2026-04-30 07:24 48.18952 0.95702 13104 ft 321 kts 115°
2026-04-30 07:24 48.18035 0.98752 13107 ft 321 kts 115°
2026-04-30 07:25 48.17124 1.01771 13105 ft 321 kts 115°
2026-04-30 07:25 48.16202 1.04817 13107 ft 322 kts 115°
2026-04-30 07:25 48.15277 1.07871 13105 ft 322 kts 115°
2026-04-30 07:25 48.14353 1.10926 13110 ft 322 kts 115°
2026-04-30 07:26 48.13429 1.13974 13110 ft 322 kts 115°
2026-04-30 07:26 48.12502 1.17035 13105 ft 322 kts 115°
2026-04-30 07:26 48.11577 1.20090 13107 ft 322 kts 115°
2026-04-30 07:26 48.10643 1.23170 13110 ft 335 kts 115°
2026-04-30 07:27 48.09639 1.26488 13108 ft 362 kts 115°
2026-04-30 07:27 48.08632 1.29805 13102 ft 345 kts 115°
2026-04-30 07:27 48.07749 1.33042 13105 ft 329 kts 105°
2026-04-30 07:27 48.07563 1.36467 13109 ft 328 kts 85°
2026-04-30 07:28 48.08208 1.39732 12989 ft 331 kts 65°
2026-04-30 07:28 48.09606 1.42360 12816 ft 327 kts 43°
2026-04-30 07:28 48.11464 1.44316 12687 ft 317 kts 37°
2026-04-30 07:28 48.13248 1.46105 12499 ft 309 kts 37°
2026-04-30 07:29 48.15028 1.47893 12179 ft 306 kts 37°
2026-04-30 07:29 48.16789 1.49667 11817 ft 305 kts 37°
2026-04-30 07:29 48.18545 1.51445 11442 ft 303 kts 37°
2026-04-30 07:29 48.20283 1.53211 11070 ft 301 kts 37°
2026-04-30 07:30 48.23750 1.56732 10327 ft 299 kts 37°
2026-04-30 07:30 48.25439 1.58542 9944 ft 298 kts 40°
2026-04-30 07:30 48.27046 1.60411 9624 ft 293 kts 41°
2026-04-30 07:31 48.28626 1.62315 9363 ft 289 kts 41°
2026-04-30 07:31 48.30186 1.64212 9099 ft 288 kts 42°
2026-04-30 07:31 48.31740 1.66101 8836 ft 286 kts 42°
2026-04-30 07:31 48.33291 1.67970 8580 ft 286 kts 41°
2026-04-30 07:32 48.34838 1.69823 8317 ft 284 kts 41°
2026-04-30 07:32 48.36387 1.71670 8047 ft 282 kts 41°
2026-04-30 07:32 48.37918 1.73497 7780 ft 281 kts 41°
2026-04-30 07:32 48.39446 1.75322 7523 ft 279 kts 42°
2026-04-30 07:33 48.40963 1.77133 7288 ft 277 kts 42°
2026-04-30 07:33 48.42471 1.78935 7042 ft 276 kts 42°
2026-04-30 07:33 48.43971 1.80729 6787 ft 274 kts 42°
2026-04-30 07:33 48.45441 1.82493 6542 ft 273 kts 41°
2026-04-30 07:34 48.46918 1.84270 6278 ft 271 kts 41°
2026-04-30 07:34 48.48386 1.86038 6030 ft 270 kts 42°
2026-04-30 07:34 48.49849 1.87796 5783 ft 269 kts 42°
2026-04-30 07:34 48.51312 1.89554 5541 ft 268 kts 42°
2026-04-30 07:35 48.52769 1.91309 5163 ft 267 kts 43°
2026-04-30 07:35 48.54206 1.93044 4903 ft 261 kts 42°
2026-04-30 07:35 48.55603 1.94727 4647 ft 252 kts 43°
2026-04-30 07:35 48.56954 1.96352 4416 ft 244 kts 43°
2026-04-30 07:36 48.58266 1.97928 4249 ft 236 kts 43°
2026-04-30 07:36 48.59516 1.99430 4163 ft 224 kts 43°
2026-04-30 07:36 48.60716 2.00880 4066 ft 216 kts 44°
2026-04-30 07:36 48.61869 2.02278 3979 ft 208 kts 44°
2026-04-30 07:37 48.62976 2.03620 3892 ft 199 kts 44°
2026-04-30 07:37 48.64044 2.04911 3809 ft 194 kts 45°
2026-04-30 07:37 48.65090 2.06183 3717 ft 193 kts 45°
2026-04-30 07:37 48.66133 2.07465 3646 ft 192 kts 49°
2026-04-30 07:38 48.66911 2.09043 3555 ft 185 kts 69°
2026-04-30 07:38 48.67300 2.10874 3394 ft 182 kts 78°
2026-04-30 07:38 48.67629 2.12686 3248 ft 180 kts 78°
2026-04-30 07:38 48.67966 2.14502 3190 ft 176 kts 78°
2026-04-30 07:39 48.68295 2.16262 2981 ft 171 kts 79°
2026-04-30 07:39 48.68621 2.18007 2755 ft 167 kts 78°
2026-04-30 07:39 48.68923 2.19619 2537 ft 156 kts 79°
2026-04-30 07:39 48.69208 2.21140 2335 ft 143 kts 81°
2026-04-30 07:40 48.69469 2.22517 2221 ft 132 kts 80°
2026-04-30 07:40 48.69733 2.23842 2012 ft 130 kts 79°
2026-04-30 07:40 48.69985 2.25135 1912 ft 126 kts 81°
2026-04-30 07:40 48.70217 2.26425 1803 ft 128 kts 81°
2026-04-30 07:41 48.70462 2.27716 1512 ft 128 kts 79°
2026-04-30 07:41 48.70684 2.29011 1361 ft 126 kts 82°
2026-04-30 07:41 48.70884 2.30315 1282 ft 129 kts 75°
2026-04-30 07:41 48.71149 2.31612 1002 ft 127 kts 75°
2026-04-30 07:42 48.71407 2.32879 828 ft 129 kts 76°
2026-04-30 07:42 48.71631 2.34209 603 ft 128 kts 77°
2026-04-30 07:42 48.71875 2.35507 404 ft 129 kts 75°
2026-04-30 07:42 48.72107 2.36776 300 ft 123 kts 73°
2026-04-30 07:43 48.72297 2.37785 296 ft 74 kts 74°
2026-04-30 07:43 48.72393 2.38303 299 ft 36 kts 74°
2026-04-30 07:43 48.72469 2.38576 297 ft 25 kts 40°
2026-04-30 07:43 48.72632 2.38674 297 ft 26 kts 17°
2026-04-30 07:44 48.72791 2.38765 296 ft 19 kts 16°
2026-04-30 07:44 48.72841 2.38658 295 ft 13 kts 272°
2026-04-30 07:44 48.72833 2.38528 297 ft 12 kts 263°
2026-04-30 07:44 48.72820 2.38390 295 ft 19 kts 259°
2026-04-30 07:45 48.72771 2.38144 296 ft 25 kts 255°
2026-04-30 07:45 48.72732 2.37905 299 ft 22 kts 256°
2026-04-30 07:45 48.72692 2.37686 296 ft 21 kts 252°
2026-04-30 07:45 48.72653 2.37486 298 ft 19 kts 255°
2026-04-30 07:46 48.72620 2.37300 295 ft 18 kts 255°
2026-04-30 07:46 48.72657 2.37170 295 ft 14 kts 345°
2026-04-30 07:46 48.72715 2.37258 298 ft 12 kts 52°
2026-04-30 07:46 48.72783 2.37243 298 ft 5 kts 341°
2026-04-30 07:47 48.72789 2.37240 297 ft 0 kts 341°